Glasgow, United Kingdom

8:42 PM GMT on February 13, 2016 (GMT +0000)
Glasgow

Weather History for EGPF - January, 2014

Change the Weather History Date:

Sunday, January 12, 2014

  Actual Average Record
Temperature  
Mean Temperature 34 °F -  
Max Temperature 39 °F 43 °F 55 °F (2007)
Min Temperature 30 °F 33 °F 24 °F (2008)
Degree Days  
Heating Degree Days 30    
Moisture  
Dew Point 32 °F    
Average Humidity 89    
Maximum Humidity 100    
Minimum Humidity 70    
Precipitation  
Precipitation 0.00 in - - ()
Sea Level Pressure  
Sea Level Pressure 29.81 in    
Wind  
Wind Speed 7 mph ()    
Max Wind Speed 15 mph    
Max Gust Speed -    
Visibility 4.4 miles    
Events Fog , Rain    
Averages and records for this station are not official NWS values.
T = Trace of Precipitation, MM = Missing Value Source: Averaged Metar Reports

Daily Weather History Graph

Daily Weather History Graph

Search for Another Location

Airport or City:

Trip Planner

Search our weather history database for the weather conditions in past years. The results will help you decide how hot, cold, wet, or windy it might be!

Date:

Astronomy

Jan. 12, 2014 Rise Set
Actual Time 8:41 AM GMT 4:11 PM GMT
Civil Twilight 7:56 AM GMT 4:56 PM GMT
Nautical Twilight 7:08 AM GMT 5:43 PM GMT
Astronomical Twilight 6:24 AM GMT 6:28 PM GMT
Moon 1:33 PM GMT (1/12) 5:21 AM GMT (1/12)
Length of Visible Light 8h 59m
Length of Day
7h 29m
Waxing Gibbous, 88% of the Moon is Illuminated
Jan 12
Waxing Gibbous
Jan 16
Full
Jan 24
Last Quarter
Jan 30
New
Feb 6
First Quarter

Hourly Weather History & Observations

Time (GMT) Temp. Windchill Dew Point Humidity Pressure Visibility Wind Dir Wind Speed Gust Speed Precip Events Conditions
12:20 AM 32.0 °F 28.7 °F 30.2 °F 93% 30.09 in 4.3 mi NNE 3.5 mph - N/A   Partly Cloudy
12:50 AM 30.2 °F 26.7 °F 30.2 °F 100% 30.09 in 4.3 mi ENE 3.5 mph - N/A   Scattered Clouds
1:20 AM 32.0 °F 28.7 °F 32.0 °F 100% 30.09 in 3.1 mi ENE 3.5 mph - N/A Fog Shallow Fog
1:50 AM 32.0 °F 27.5 °F 30.2 °F 93% 30.09 in 3.7 mi NE 4.6 mph - N/A Fog Fog
2:20 AM 32.0 °F 27.5 °F 30.2 °F 93% 30.09 in 3.7 mi ENE 4.6 mph - N/A   Partly Cloudy
2:50 AM 32.0 °F 27.5 °F 30.2 °F 93% 30.09 in 2.5 mi ENE 4.6 mph - N/A   Mist
3:20 AM 32.0 °F 26.4 °F 30.2 °F 93% 30.09 in 3.1 mi NE 5.8 mph - N/A   Mist
3:50 AM 32.0 °F 26.4 °F 32.0 °F 100% 30.06 in 4.3 mi ENE 5.8 mph - N/A   Unknown
4:20 AM 32.0 °F 24.8 °F 32.0 °F 100% 30.06 in - East 8.1 mph - N/A   Clear
4:50 AM 32.0 °F 25.6 °F 32.0 °F 100% 30.04 in - ENE 6.9 mph - N/A   Clear
5:20 AM 33.8 °F 28.6 °F 32.0 °F 93% 30.04 in - ENE 5.8 mph - N/A   Clear
5:50 AM 33.8 °F 27.0 °F 32.0 °F 93% 30.01 in - ENE 8.1 mph - N/A   Clear
6:20 AM 33.8 °F 27.0 °F 32.0 °F 93% 30.01 in - ENE 8.1 mph - N/A   Clear
6:50 AM 32.0 °F 28.7 °F 32.0 °F 100% 30.01 in 5.0 mi Variable 3.5 mph - N/A   Unknown
7:20 AM 33.8 °F 26.4 °F 32.0 °F 93% 30.01 in - ENE 9.2 mph - N/A   Clear
7:50 AM 33.8 °F 26.4 °F 32.0 °F 93% 29.98 in - ENE 9.2 mph - N/A   Clear
8:20 AM 33.8 °F 25.8 °F 32.0 °F 93% 29.98 in - ENE 10.4 mph - N/A   Clear
8:50 AM 33.8 °F 25.8 °F 32.0 °F 93% 29.95 in - ENE 10.4 mph - N/A   Clear
9:20 AM 35.6 °F 28.6 °F 32.0 °F 87% 29.95 in - ENE 9.2 mph - N/A   Clear
9:50 AM 35.6 °F 28.6 °F 32.0 °F 87% 29.95 in - ENE 9.2 mph - N/A   Clear
10:20 AM 35.6 °F 27.1 °F 32.0 °F 87% 29.92 in - ENE 12.7 mph - N/A   Clear
10:50 AM 35.6 °F 28.0 °F 32.0 °F 87% 29.92 in - East 10.4 mph - N/A   Clear
11:20 AM 37.4 °F 30.3 °F 32.0 °F 81% 29.89 in - East 10.4 mph - N/A   Clear
11:50 AM 37.4 °F 30.8 °F 32.0 °F 81% 29.86 in - East 9.2 mph - N/A   Clear
12:20 PM 37.4 °F 30.8 °F 32.0 °F 81% 29.86 in - East 9.2 mph - N/A   Clear
12:50 PM 37.4 °F 31.4 °F 33.8 °F 87% 29.83 in - East 8.1 mph - N/A   Clear
1:20 PM 37.4 °F 32.1 °F 33.8 °F 87% 29.80 in 6.2 mi ENE 6.9 mph - N/A   Mostly Cloudy
1:50 PM 39.2 °F 32.5 °F 32.0 °F 75% 29.77 in 6.2 mi East 10.4 mph - N/A   Overcast
2:20 PM 37.4 °F 30.8 °F 32.0 °F 81% 29.77 in 6.2 mi ENE 9.2 mph - N/A   Overcast
2:50 PM 37.4 °F 29.8 °F 32.0 °F 81% 29.74 in 6.2 mi East 11.5 mph - N/A   Overcast
3:20 PM 39.2 °F 31.6 °F 32.0 °F 75% 29.71 in 6.2 mi East 12.7 mph - N/A   Mostly Cloudy
3:50 PM 39.2 °F 31.6 °F 32.0 °F 75% 29.68 in 6.2 mi East 12.7 mph - N/A   Mostly Cloudy
4:20 PM 37.4 °F 29.8 °F 32.0 °F 81% 29.68 in 6.2 mi ENE 11.5 mph - N/A   Mostly Cloudy
4:50 PM 39.2 °F 32.5 °F 32.0 °F 75% 29.65 in 6.2 mi East 10.4 mph - N/A   Mostly Cloudy
5:20 PM 37.4 °F 29.3 °F 30.2 °F 75% 29.62 in 6.2 mi East 12.7 mph - N/A   Mostly Cloudy
5:50 PM 39.2 °F 31.6 °F 30.2 °F 70% 29.62 in 6.2 mi East 12.7 mph - N/A   Mostly Cloudy
6:20 PM 37.4 °F 29.3 °F 32.0 °F 81% 29.59 in 4.3 mi East 12.7 mph - N/A Rain Light Rain
6:50 PM 35.6 °F 28.0 °F 32.0 °F 87% 29.59 in 3.1 mi ENE 10.4 mph - N/A Rain Rain
7:20 PM 35.6 °F 27.5 °F 32.0 °F 87% 29.56 in 5.0 mi ENE 11.5 mph - N/A Rain Light Rain
7:50 PM 35.6 °F 27.1 °F 33.8 °F 93% 29.53 in 5.0 mi ENE 12.7 mph - N/A Rain Rain
8:20 PM 35.6 °F 27.5 °F 33.8 °F 93% 29.53 in 4.3 mi ENE 11.5 mph - N/A Rain Light Rain
8:50 PM 35.6 °F 27.1 °F 33.8 °F 93% 29.50 in 3.7 mi ENE 12.7 mph - N/A Rain Light Rain
9:20 PM 35.6 °F 26.2 °F 33.8 °F 93% 29.47 in 4.3 mi NE 15.0 mph - N/A Rain Light Rain
9:50 PM 37.4 °F 30.3 °F 35.6 °F 93% 29.47 in 3.1 mi ENE 10.4 mph - N/A Rain Light Rain
10:20 PM 37.4 °F 30.3 °F 35.6 °F 93% 29.44 in 1.3 mi ENE 10.4 mph - N/A   Heavy Drizzle
10:50 PM 37.4 °F 32.1 °F 35.6 °F 93% 29.44 in 1.7 mi NE 6.9 mph - N/A   Drizzle
11:20 PM 37.4 °F 32.8 °F 37.4 °F 100% 29.44 in 1.4 mi NE 5.8 mph - N/A   Heavy Drizzle
11:50 PM 37.4 °F 33.8 °F 37.4 °F 100% 29.44 in 2.2 mi NW 4.6 mph - N/A   Light Drizzle